Weather History for Lander, WY

Change the Weather History Date:

Tuesday, March 6, 2012

  Actual Average Record
Temperature  
Mean Temperature 38 °F 32 °F  
Max Temperature 55 °F 44 °F 62 °F (2005)
Min Temperature 20 °F 20 °F -21 °F (1943)
Degree Days  
Heating Degree Days 27 33  
Month to date heating degree days 182 203  
Since 1 July heating degree days 5525 5907  
Cooling Degree Days 0 0  
Month to date cooling degree days 0 0  
Year to date cooling degree days 0 0  
Moisture  
Dew Point 20 °F    
Average Humidity 58    
Maximum Humidity 92    
Minimum Humidity 24    
Precipitation  
Precipitation 0.29 in 0.03 in 0.41 in (1990)
Month to date precipitation 0.29 0.16  
Year to date precipitation 1.60 1.15  
Snow  
Snow 4.00 in 0.50 in - ()
Month to date snowfall 4.0 2.5  
Since 1 July snowfall 55.7 56.1  
Snow Depth 4.00 in    
Sea Level Pressure  
Sea Level Pressure 29.50 in    
Wind  
Wind Speed 15 mph (SW)    
Max Wind Speed 31 mph    
Max Gust Speed 40 mph    
Visibility 8 miles    
Events Fog , Snow    
T = Trace of Precipitation, MM = Missing Value Source: NWS Daily Summary

Daily Weather History Graph

Daily Weather History Graph

Search for Another Location

Airport:

Trip Planner

Search our weather history database for the weather conditions in past years. The results will help you decide how hot, cold, wet, or windy it might be!

Date:

Astronomy

Mar. 06, 2012 Rise Set
Actual Time 6:41 AM MST 6:11 PM MST
Civil Twilight 6:13 AM MST 6:39 PM MST
Nautical Twilight 5:40 AM MST 7:12 PM MST
Astronomical Twilight 5:07 AM MST 7:45 PM MST
Moon 4:40 PM MST (3/6) 5:20 AM MST (3/6)
Length of Visible Light 12h 26m
Length of Day
11h 29m
Waxing Gibbous, 96% of the Moon is Illuminated
Mar 6
Waxing Gibbous
Mar 8
Full
Mar 14
Last Quarter
Mar 22
New
Mar 30
First Quarter

Hourly Weather History & Observations

Time (MST) Temp. Windchill Dew Point Humidity Pressure Visibility Wind Dir Wind Speed Gust Speed Precip Events Conditions
12:04 AM 48.2 °F - 17.6 °F 30% 29.63 in 10.0 mi Variable 5.8 mph 17.3 mph N/A   Clear
12:53 AM 50.0 °F - 18.0 °F 28% 29.50 in 10.0 mi Variable 5.8 mph 29.9 mph N/A   Clear
1:53 AM 48.9 °F - 18.0 °F 29% 29.48 in 10.0 mi WSW 16.1 mph 28.8 mph N/A   Clear
2:53 AM 46.9 °F - 19.0 °F 33% 29.44 in 10.0 mi SW 23.0 mph 27.6 mph N/A   Clear
3:53 AM 46.9 °F - 18.0 °F 32% 29.40 in 10.0 mi SW 13.8 mph 23.0 mph N/A   Clear
4:53 AM 46.0 °F 38.5 °F 18.0 °F 33% 29.40 in 10.0 mi SW 19.6 mph 26.5 mph N/A   Clear
5:53 AM 46.0 °F 38.5 °F 19.0 °F 34% 29.40 in 10.0 mi SW 19.6 mph 26.5 mph N/A   Clear
6:53 AM 45.0 °F 36.2 °F 19.0 °F 36% 29.39 in 10.0 mi SW 24.2 mph 33.4 mph N/A   Clear
7:53 AM 48.0 °F - 19.0 °F 32% 29.38 in 10.0 mi SW 16.1 mph 27.6 mph N/A   Clear
8:53 AM 51.1 °F - 18.0 °F 27% 29.38 in 10.0 mi WSW 31.1 mph 39.1 mph N/A   Clear
9:53 AM 50.0 °F - 18.0 °F 28% 29.38 in 10.0 mi SW 19.6 mph 33.4 mph N/A   Clear
10:53 AM 53.1 °F - 19.0 °F 26% 29.37 in 10.0 mi SW 21.9 mph 31.1 mph N/A   Clear
11:53 AM 54.0 °F - 18.0 °F 24% 29.35 in 10.0 mi SW 23.0 mph 26.5 mph N/A   Clear
12:53 PM 54.0 °F - 19.0 °F 25% 29.31 in 10.0 mi WSW 17.3 mph 24.2 mph N/A   Clear
1:53 PM 53.1 °F - 19.9 °F 27% 29.29 in 10.0 mi WSW 11.5 mph - N/A   Clear
2:53 PM 53.1 °F - 19.0 °F 26% 29.29 in 10.0 mi SW 11.5 mph 20.7 mph N/A   Clear
3:53 PM 52.0 °F - 21.9 °F 31% 29.30 in 10.0 mi Calm Calm - N/A   Clear
4:46 PM 48.2 °F - 21.2 °F 34% 29.43 in 10.0 mi SW 11.5 mph - N/A   Scattered Clouds
4:53 PM 46.9 °F - 23.0 °F 39% 29.35 in 10.0 mi SSW 10.4 mph - N/A   Partly Cloudy
5:53 PM 46.0 °F 44.8 °F 24.1 °F 42% 29.39 in 10.0 mi Variable 3.5 mph - N/A   Overcast
6:16 PM 37.4 °F 27.5 °F 26.6 °F 65% 29.50 in 10.0 mi NE 18.4 mph 25.3 mph N/A   Overcast
6:53 PM 34.0 °F 27.2 °F 24.1 °F 67% 29.54 in 10.0 mi North 8.1 mph - N/A   Overcast
7:22 PM 33.8 °F 27.0 °F 24.8 °F 70% 29.60 in 10.0 mi NE 8.1 mph - N/A   Overcast
7:53 PM 30.0 °F 17.5 °F 21.9 °F 72% 29.62 in 9.0 mi NNE 19.6 mph - 0.00 in Snow Light Snow
8:14 PM 26.6 °F 14.3 °F 23.0 °F 86% 29.66 in 1.8 mi North 16.1 mph - 0.01 in Snow Light Snow
8:23 PM 26.6 °F 15.7 °F 23.0 °F 86% 29.67 in 1.0 mi North 12.7 mph - 0.03 in Snow Light Snow
8:25 PM 26.6 °F 16.2 °F 24.8 °F 93% 29.67 in 0.8 mi NNE 11.5 mph - 0.03 in Snow Light Snow
8:53 PM 24.1 °F 11.0 °F 21.0 °F 88% 29.71 in 0.5 mi NNE 16.1 mph 21.9 mph 0.06 in Fog , Snow Snow
9:53 PM 21.9 °F 12.5 °F 19.9 °F 92% 29.77 in 0.8 mi East 8.1 mph - 0.07 in Snow Light Snow
10:23 PM 21.2 °F - 19.4 °F 93% 29.78 in 0.2 mi Calm Calm - 0.03 in Fog , Snow Heavy Snow
10:53 PM 21.0 °F 14.6 °F 19.0 °F 92% 29.78 in 0.2 mi SSE 4.6 mph - 0.10 in Fog , Snow Snow
11:53 PM 19.9 °F 11.1 °F 19.0 °F 96% 29.81 in 0.8 mi ESE 6.9 mph - 0.06 in Snow Light Snow